• In Hungary
  • List of Countries
  • For 7 days
  • Water Temperature
  • Satellite Maps
  • Weather Map
  • News
  • Weather Widgets
  • user-avatar
    Login

    Hourly Weather Nagumanovka

    Today, 15 August, Wednesday

    Time Temperature Precipitation Wind Pressure Humidity
    00:00 +21°C° 0.2 mm 3 mps 746 mmHg 61%
    01:00 +20°C° 0.2 mm 4 mps 746 mmHg 67%
    02:00 +20°C° 0 mm 4 mps 747 mmHg 73%
    03:00 +19°C° 0 mm 4 mps 747 mmHg 78%
    04:00 +17°C° 0 mm 5 mps 747 mmHg 83%
    05:00 +17°C° 0 mm 5 mps 747 mmHg 80%
    06:00 +17°C° 0 mm 5 mps 748 mmHg 77%
    07:00 +17°C° 0 mm 6 mps 748 mmHg 74%
    08:00 +20°C° 0 mm 6 mps 749 mmHg 65%
    09:00 +21°C° 0 mm 6 mps 749 mmHg 57%
    10:00 +23°C° 0 mm 6 mps 749 mmHg 47%
    11:00 +24°C° 0 mm 6 mps 750 mmHg 43%
    12:00 +26°C° 0 mm 6 mps 750 mmHg 40%
    13:00 +27°C° 0 mm 6 mps 750 mmHg 37%
    14:00 +27°C° 0 mm 6 mps 750 mmHg 36%
    15:00 +27°C° 0 mm 6 mps 750 mmHg 35%
    16:00 +27°C° 0 mm 5 mps 750 mmHg 34%
    17:00 +26°C° 0 mm 5 mps 750 mmHg 37%
    18:00 +25°C° 0 mm 4 mps 751 mmHg 41%
    19:00 +23°C° 0 mm 4 mps 751 mmHg 44%
    20:00 +22°C° 0 mm 3 mps 751 mmHg 48%
    21:00 +21°C° 0 mm 3 mps 751 mmHg 51%
    22:00 +20°C° 0 mm 2 mps 751 mmHg 55%
    23:00 +19°C° 0 mm 2 mps 752 mmHg 58%

    Tomorrow, 16 August, Thursday

    Time Temperature Precipitation Wind Pressure Humidity
    00:00 +19°C° 0 mm 2 mps 752 mmHg 60%
    01:00 +18°C° 0 mm 2 mps 752 mmHg 63%
    02:00 +19°C° 0 mm 1 mps 752 mmHg 65%
    03:00 +18°C° 0 mm 1 mps 752 mmHg 68%
    04:00 +18°C° 0 mm 1 mps 752 mmHg 70%
    05:00 +18°C° 0 mm 1 mps 752 mmHg 67%
    06:00 +19°C° 0 mm 1 mps 752 mmHg 64%
    07:00 +20°C° 0 mm 1 mps 753 mmHg 62%
    08:00 +22°C° 0 mm 1 mps 753 mmHg 56%
    09:00 +23°C° 0 mm 2 mps 753 mmHg 50%
    10:00 +24°C° 0 mm 2 mps 753 mmHg 44%
    11:00 +25°C° 0 mm 2 mps 753 mmHg 40%
    12:00 +26°C° 0 mm 2 mps 753 mmHg 36%
    13:00 +27°C° 0 mm 2 mps 752 mmHg 32%
    14:00 +28°C° 0 mm 2 mps 752 mmHg 30%
    15:00 +28°C° 0 mm 2 mps 752 mmHg 28%
    16:00 +29°C° 0 mm 2 mps 752 mmHg 27%
    17:00 +28°C° 0 mm 2 mps 752 mmHg 30%
    18:00 +27°C° 0 mm 1 mps 751 mmHg 33%
    19:00 +26°C° 0 mm 1 mps 751 mmHg 36%
    20:00 +25°C° 0 mm 1 mps 751 mmHg 38%
    21:00 +24°C° 0 mm 1 mps 751 mmHg 40%
    22:00 +23°C° 0 mm 1 mps 751 mmHg 41%
    23:00 +23°C° 0 mm 1 mps 751 mmHg 41%

    Day after tomorrow, 17 August, Friday

    Time Temperature Precipitation Wind Pressure Humidity
    00:00 +21°C° 0 mm 2 mps 751 mmHg 40%
    01:00 +21°C° 0 mm 2 mps 751 mmHg 39%
    02:00 +21°C° 0 mm 2 mps 751 mmHg 40%
    03:00 +21°C° 0 mm 2 mps 751 mmHg 40%
    04:00 +20°C° 0 mm 3 mps 750 mmHg 41%
    05:00 +21°C° 0 mm 3 mps 750 mmHg 40%
    06:00 +22°C° 0 mm 3 mps 750 mmHg 39%
    07:00 +22°C° 0 mm 3 mps 751 mmHg 39%
    08:00 +26°C° 0 mm 3 mps 750 mmHg 34%
    09:00 +28°C° 0 mm 3 mps 750 mmHg 30%
    10:00 +30°C° 0 mm 4 mps 750 mmHg 26%
    11:00 +30°C° 0 mm 4 mps 750 mmHg 24%
    12:00 +32°C° 0 mm 4 mps 750 mmHg 23%
    13:00 +33°C° 0 mm 4 mps 749 mmHg 22%
    14:00 +33°C° 0 mm 4 mps 749 mmHg 21%
    15:00 +34°C° 0 mm 4 mps 749 mmHg 21%
    16:00 +34°C° 0 mm 4 mps 748 mmHg 21%
    17:00 +32°C° 0 mm 4 mps 748 mmHg 27%
    18:00 +30°C° 0 mm 4 mps 748 mmHg 33%
    19:00 +28°C° 0 mm 4 mps 748 mmHg 39%
    20:00 +27°C° 0 mm 4 mps 748 mmHg 47%
    21:00 +25°C° 0 mm 3 mps 748 mmHg 56%
    22:00 +24°C° 0 mm 3 mps 748 mmHg 64%
    23:00 +22°C° 0 mm 3 mps 748 mmHg 67%

    18 August, Saturday

    Time Temperature Precipitation Wind Pressure Humidity
    00:00 +21°C° 0 mm 3 mps 748 mmHg 71%
    01:00 +21°C° 0 mm 3 mps 748 mmHg 74%
    02:00 +20°C° 0 mm 4 mps 748 mmHg 75%
    03:00 +20°C° 0 mm 4 mps 748 mmHg 76%
    04:00 +20°C° 0 mm 4 mps 748 mmHg 76%
    05:00 +19°C° 0.6 mm 4 mps 748 mmHg 78%
    06:00 +19°C° 0.6 mm 4 mps 748 mmHg 79%
    07:00 +19°C° 0.6 mm 5 mps 748 mmHg 81%
    08:00 +19°C° 0.5 mm 4 mps 748 mmHg 78%
    09:00 +19°C° 0.5 mm 4 mps 748 mmHg 76%
    10:00 +20°C° 0.5 mm 4 mps 748 mmHg 74%
    11:00 +21°C° 0.1 mm 4 mps 748 mmHg 70%
    12:00 +21°C° 0.1 mm 4 mps 747 mmHg 66%
    13:00 +22°C° 0.1 mm 4 mps 747 mmHg 62%
    14:00 +23°C° 0 mm 4 mps 747 mmHg 59%
    15:00 +23°C° 0 mm 4 mps 747 mmHg 56%
    16:00 +25°C° 0 mm 5 mps 747 mmHg 54%
    17:00 +23°C° 0 mm 5 mps 747 mmHg 56%
    18:00 +22°C° 0 mm 5 mps 747 mmHg 58%
    19:00 +22°C° 0 mm 4 mps 747 mmHg 60%
    20:00 +21°C° 0 mm 5 mps 747 mmHg 63%
    21:00 +19°C° 0 mm 5 mps 747 mmHg 67%
    22:00 +17°C° 0 mm 5 mps 747 mmHg 71%
    23:00 +17°C° 0 mm 5 mps 747 mmHg 73%

    19 August, Sunday

    Time Temperature Precipitation Wind Pressure Humidity
    00:00 +16°C° 0 mm 5 mps 747 mmHg 76%
    01:00 +15°C° 0 mm 5 mps 747 mmHg 79%
    02:00 +15°C° 0 mm 5 mps 747 mmHg 80%
    03:00 +14°C° 0 mm 5 mps 746 mmHg 82%
    04:00 +14°C° 0 mm 5 mps 746 mmHg 83%
    05:00 +14°C° 0 mm 6 mps 746 mmHg 81%
    06:00 +14°C° 0 mm 6 mps 747 mmHg 78%
    07:00 +15°C° 0 mm 7 mps 747 mmHg 76%
    08:00 +16°C° 0 mm 7 mps 747 mmHg 73%
    09:00 +16°C° 0 mm 8 mps 747 mmHg 70%
    10:00 +17°C° 0 mm 8 mps 747 mmHg 67%
    11:00 +17°C° 0 mm 8 mps 746 mmHg 65%
    12:00 +17°C° 0 mm 9 mps 746 mmHg 63%
    13:00 +18°C° 0 mm 9 mps 746 mmHg 61%
    14:00 +18°C° 0 mm 9 mps 746 mmHg 59%
    15:00 +18°C° 0 mm 9 mps 746 mmHg 56%
    16:00 +20°C° 0 mm 8 mps 747 mmHg 54%
    17:00 +18°C° 0 mm 7 mps 747 mmHg 55%
    18:00 +19°C° 0 mm 6 mps 747 mmHg 55%
    19:00 +19°C° 0 mm 6 mps 747 mmHg 56%
    20:00 +17°C° 0 mm 5 mps 747 mmHg 60%
    21:00 +16°C° 0 mm 5 mps 747 mmHg 63%
    22:00 +15°C° 0 mm 5 mps 747 mmHg 67%
    23:00 +14°C° 0 mm 5 mps 747 mmHg 69%

    20 August, Monday

    Time Temperature Precipitation Wind Pressure Humidity
    00:00 +14°C° 0 mm 5 mps 747 mmHg 71%
    01:00 +13°C° 0 mm 6 mps 747 mmHg 73%
    02:00 +13°C° 0 mm 6 mps 747 mmHg 74%
    03:00 +11°C° 0 mm 6 mps 747 mmHg 76%
    04:00 +11°C° 0 mm 6 mps 747 mmHg 77%
    05:00 +11°C° 0 mm 7 mps 747 mmHg 76%
    06:00 +12°C° 0 mm 7 mps 747 mmHg 74%
    07:00 +12°C° 0 mm 7 mps 747 mmHg 73%
    08:00 +14°C° 0 mm 7 mps 747 mmHg 67%
    09:00 +16°C° 0 mm 7 mps 747 mmHg 61%
    10:00 +17°C° 0 mm 7 mps 747 mmHg 55%
    11:00 +18°C° 0 mm 7 mps 747 mmHg 53%
    12:00 +20°C° 0 mm 7 mps 747 mmHg 51%
    13:00 +20°C° 0 mm 7 mps 747 mmHg 48%
    14:00 +21°C° 0 mm 6 mps 748 mmHg 48%
    15:00 +21°C° 0 mm 6 mps 748 mmHg 47%
    16:00 +21°C° 0 mm 6 mps 748 mmHg 47%
    17:00 +21°C° 0 mm 5 mps 748 mmHg 49%
    18:00 +20°C° 0 mm 4 mps 748 mmHg 52%
    19:00 +19°C° 0 mm 4 mps 748 mmHg 55%
    20:00 +18°C° 0 mm 3 mps 749 mmHg 59%
    21:00 +17°C° 0 mm 3 mps 749 mmHg 62%
    22:00 +16°C° 0 mm 3 mps 749 mmHg 66%
    23:00 +16°C° 0 mm 3 mps 749 mmHg 68%
    Show more